Wind_Speed
54 55 56 56 57 58 59 60 61 62 64 65 66 68 69 71 73 78 83 87 89 89 88 87 86 84 81 79 77 76 75 73 72 71 72 71 70 69 68 68 67 67 67 66 66 66 66 66 65 64 64 63 62 62 61 61 60 61 63 65 65 64 63 61 60 58 57 55 54 53 54 54 54 57 58 57 60 59 56 54 53 53 52 52 53 52 51 48
55 55 56 57 57 58 59 59 60 62 63 65 67 68 70 71 72 74 78 83 87 90 90 89 88 87 84 81 78 77 75 74 73 73 73 70 69 69 68 67 67 67 66 66 66 65 65 65 64 63 63 62 62 61 61 61 61 63 65 65 64 63 63 61 61 60 58 57 56 56 56 56 56 59 59 58 60 59 57 55 54 54 54 54 54 54 53 51
55 55 56 57 57 58 59 59 60 61 63 64 66 68 70 71 73 74 75 78 82 87 90 91 90 89 87 84 81 79 76 74 74 75 72 69 70 70 68 68 67 67 66 66 65 65 64 64 63 63 62 62 62 62 61 61 62 64 65 64 63 63 63 62 62 61 60 59 58 58 58 57 57 61 61 59 59 58 56 55 54 55 55 56 57 56 55 53
54 54 55 57 57 58 59 60 60 61 62 64 65 68 70 72 73 74 75 76 78 82 87 91 92 91 89 87 84 81 78 76 76 75 71 70 71 70 69 69 68 67 66 65 65 64 63 63 63 63 62 62 62 62 61 62 63 64 65 63 63 63 63 62 62 62 61 60 60 60 60 59 60 63 63 60 59 57 56 56 56 56 56 57 59 58 57 54
54 54 55 56 57 58 59 59 60 61 63 64 65 67 69 72 73 74 75 76 76 78 82 88 92 92 90 89 87 84 81 78 78 76 72 72 72 70 70 69 68 67 66 65 65 64 64 63 63 63 63 63 63 62 62 63 63 65 65 63 63 63 62 62 62 62 62 62 62 62 61 60 62 64 64 62 59 56 56 56 57 56 57 59 60 60 58 55
55 56 56 57 57 58 59 59 60 62 63 64 66 67 69 71 73 75 76 76 76 77 79 84 89 92 92 90 89 87 83 81 81 78 75 74 73 71 70 69 68 67 66 66 65 64 64 63 63 63 63 63 63 62 63 63 64 65 64 63 63 63 62 62 62 62 62 62 62 62 62 61 63 64 64 63 61 58 57 57 57 56 58 61 61 60 58 56
58 58 59 59 59 59 60 60 61 62 64 65 66 68 69 71 73 75 76 77 77 77 79 81 84 89 92 92 90 88 86 84 83 80 77 76 75 73 71 70 68 67 66 66 64 64 63 62 62 63 63 63 63 63 62 63 64 65 64 63 63 62 62 62 61 61 61 61 62 63 64 63 63 63 64 65 64 61 59 58 57 56 59 63 62 59 57 56
61 61 61 62 61 61 61 62 62 63 65 66 67 68 70 71 73 75 77 78 78 78 78 79 81 85 89 92 91 89 88 87 84 82 79 77 76 75 73 71 69 68 66 65 64 63 62 62 62 62 63 63 63 62 62 62 63 64 63 63 62 62 62 61 61 60 60 61 62 63 63 63 62 62 64 64 64 61 59 58 56 56 61 64 62 59 58 57
64 64 64 64 64 64 64 64 64 65 66 67 68 69 70 72 73 74 76 79 80 78 78 79 79 81 86 91 93 91 90 88 85 83 80 78 77 76 74 72 70 69 67 66 64 63 63 63 63 63 63 63 62 61 60 61 63 63 63 62 62 62 61 60 60 59 58 60 63 63 62 62 62 62 64 63 62 60 58 57 56 57 62 64 61 60 59 57
67 66 67 67 67 66 66 66 66 67 67 68 69 70 71 72 73 74 76 79 81 80 78 78 78 79 82 88 93 92 91 89 86 85 82 79 78 76 75 73 71 70 67 66 64 64 64 64 63 63 62 61 59 59 60 61 63 63 63 62 61 61 61 59 59 59 59 60 63 62 61 61 61 62 63 62 59 58 57 57 56 59 63 63 61 60 59 57
69 69 69 69 69 68 68 68 68 69 69 70 70 71 71 72 73 74 76 78 82 81 78 77 77 78 80 85 91 94 92 89 87 86 83 80 78 76 74 73 71 69 67 66 65 65 65 64 63 61 60 59 59 60 60 61 63 63 62 62 62 61 60 60 60 60 59 60 61 60 60 61 61 62 62 59 57 56 56 56 57 62 64 61 60 60 58 57
71 71 71 71 70 70 69 69 70 70 71 72 72 72 72 73 73 74 75 78 81 82 79 77 76 77 79 83 89 93 92 89 87 86 83 80 77 75 74 72 71 69 67 66 66 65 64 62 61 60 59 60 60 61 61 62 62 62 62 62 62 61 60 60 60 59 58 59 59 59 60 62 62 61 60 57 56 55 54 54 58 62 62 60 60 59 58 57
73 73 73 72 71 71 70 71 71 72 73 73 73 73 73 73 73 73 74 77 80 81 79 76 76 76 78 82 86 90 91 90 88 86 83 79 76 75 73 72 70 68 67 66 66 65 63 62 61 60 61 61 62 61 61 62 62 61 62 61 61 61 60 59 58 58 58 58 57 57 59 60 60 59 58 55 53 53 52 54 59 62 61 60 60 58 57 57
74 74 73 72 72 71 71 72 73 74 75 75 74 74 74 74 73 72 73 76 78 79 78 75 75 76 78 80 82 87 92 92 89 86 83 80 77 75 73 71 70 68 67 66 65 64 63 62 62 62 62 62 62 61 61 61 60 59 60 60 60 60 59 57 57 57 56 56 56 57 57 56 56 56 55 53 51 49 49 52 58 60 59 59 59 58 57 56
74 73 73 72 71 71 71 73 75 76 76 76 76 76 75 73 71 70 72 74 76 77 76 75 74 75 77 79 80 85 91 93 89 86 84 80 78 75 73 71 70 69 67 66 65 64 64 63 63 63 63 62 61 61 61 60 59 59 59 59 60 59 57 56 56 56 54 53 54 55 55 53 53 54 53 52 49 45 46 50 55 56 57 58 59 58 57 56
73 72 71 70 70 71 72 74 76 77 76 76 76 75 72 69 67 67 69 72 74 74 75 74 74 75 77 77 79 84 90 93 90 86 84 81 78 76 73 71 70 68 68 67 66 65 64 64 64 63 62 61 60 60 60 59 60 59 59 59 59 58 57 57 57 56 53 51 52 53 53 53 52 52 52 50 45 42 44 48 50 51 53 56 57 56 55 55
71 70 69 69 70 72 73 75 76 76 76 76 73 70 66 63 63 64 67 70 72 73 74 74 74 74 76 76 78 83 88 91 89 86 84 82 79 76 73 71 70 69 69 68 67 66 65 64 64 63 61 60 60 60 60 60 60 60 60 60 59 58 57 58 58 57 54 51 52 53 52 51 51 50 50 47 42 40 42 45 47 49 51 54 55 55 55 53
69 68 68 69 71 73 74 75 76 75 74 71 66 62 60 58 59 62 65 68 70 72 73 74 73 73 74 75 78 81 85 88 88 86 84 81 79 76 74 72 71 70 69 68 67 66 65 64 63 62 60 60 60 60 59 61 62 61 60 59 58 57 55 56 57 56 54 49 49 52 51 50 48 47 46 45 42 42 43 44 47 49 51 52 54 55 55 54
66 66 68 69 71 73 74 75 74 72 68 63 59 56 55 55 57 60 63 66 68 71 73 73 72 72 73 74 76 78 81 85 86 86 84 81 79 77 74 72 71 69 68 68 67 66 65 64 62 60 60 60 61 61 60 63 63 60 57 55 54 52 50 50 50 51 51 48 47 48 48 47 46 45 45 45 45 45 45 47 48 50 51 53 55 57 57 56
65 67 68 70 72 73 73 72 70 65 60 56 54 53 53 53 56 59 62 65 69 72 72 71 70 71 71 72 73 75 78 82 84 84 83 81 79 76 75 72 70 69 68 68 68 66 64 62 61 61 62 62 62 62 63 63 61 56 53 52 52 50 47 46 45 47 48 48 48 47 46 47 46 46 47 48 48 48 48 50 50 51 52 55 57 59 58 56
66 67 68 70 71 72 70 67 62 57 54 52 51 50 51 53 56 59 63 66 69 69 69 68 68 69 69 70 70 73 76 80 81 82 81 79 77 75 73 71 70 69 69 69 67 64 62 60 61 62 63 62 61 62 62 60 56 53 51 52 53 51 47 45 45 46 45 45 48 47 46 47 48 50 51 51 51 51 52 52 53 54 56 58 58 56 55 53
65 67 68 69 70 68 65 59 54 51 50 49 48 49 50 53 57 60 64 66 66 66 67 67 67 67 68 67 68 71 74 76 78 78 78 76 74 72 71 70 69 70 69 67 64 61 60 60 62 62 62 62 61 61 60 57 53 52 52 53 54 52 49 47 46 47 46 43 44 45 45 48 52 54 54 54 53 53 54 54 55 57 58 57 55 53 52 52
65 66 67 68 67 62 56 51 49 47 47 47 47 48 51 54 58 60 63 64 64 64 64 65 65 66 66 65 66 69 71 73 74 75 75 74 72 71 70 69 69 69 67 63 61 59 59 62 63 62 61 60 59 60 58 54 51 52 53 54 56 52 49 48 45 46 49 45 42 44 47 50 54 57 57 57 55 54 55 55 56 56 56 55 53 52 51 51
64 65 66 64 60 54 49 46 45 45 45 45 46 49 52 55 57 59 61 62 61 61 62 63 63 63 63 64 66 68 70 71 73 74 73 73 72 70 69 68 67 65 62 60 59 59 61 62 61 60 60 58 57 57 55 52 50 50 52 55 56 52 49 48 43 42 47 49 47 48 49 51 54 58 59 59 57 56 55 54 54 53 54 55 55 52 51 52
63 63 62 57 51 47 44 43 42 43 43 44 46 49 52 54 56 57 59 59 58 59 60 60 60 61 61 61 63 66 69 70 71 72 72 72 71 69 67 66 64 61 60 59 58 59 61 60 59 59 58 57 56 54 52 50 49 49 50 53 55 54 52 49 43 38 41 48 50 49 49 50 55 60 60 60 60 59 55 53 53 54 56 57 55 52 51 52
61 59 54 48 44 41 40 39 40 40 41 44 47 50 51 52 53 55 56 56 56 57 57 58 59 59 58 59 62 65 67 67 69 70 70 69 67 66 65 63 61 61 60 59 58 59 61 59 59 58 56 55 53 52 50 47 46 45 45 49 51 52 50 47 44 40 38 41 46 49 49 50 56 60 61 60 60 57 54 53 55 56 57 57 56 53 52 53
55 50 45 41 38 37 36 37 38 40 43 46 49 52 53 52 53 54 54 54 54 55 55 57 57 57 57 60 62 63 65 66 67 67 66 66 65 64 63 62 61 60 59 58 57 59 59 57 57 55 53 51 49 50 48 45 43 41 43 49 50 47 47 46 43 41 41 43 47 50 50 52 56 59 59 58 57 56 56 57 58 58 57 56 56 54 53 53
47 42 38 35 34 34 35 37 40 43 47 50 53 55 56 55 54 53 52 52 54 54 55 56 56 57 57 58 60 62 64 64 63 64 66 65 64 63 62 61 61 60 59 57 57 59 58 56 55 53 51 48 48 49 47 45 43 42 46 51 49 47 49 47 44 44 47 49 49 50 51 53 55 56 56 56 55 56 58 60 60 59 57 56 55 55 54 53
39 36 33 32 32 33 35 39 43 46 50 53 55 55 54 54 53 51 51 52 53 53 55 56 56 57 56 57 59 61 62 60 60 63 65 63 62 62 61 61 61 60 58 56 57 58 56 54 53 51 48 46 47 47 46 45 46 47 50 48 46 48 49 48 47 49 51 51 50 51 52 52 53 53 53 54 54 55 57 58 58 57 56 55 56 56 55 54
33 31 29 30 31 33 37 41 45 48 52 54 54 54 53 52 51 50 50 51 53 54 55 56 56 56 56 57 59 59 59 58 59 61 62 61 60 60 60 60 60 58 56 55 55 56 54 52 50 47 45 44 45 44 44 45 48 51 51 47 44 45 47 48 48 49 49 49 50 52 53 52 51 50 51 52 53 54 55 56 56 56 56 56 56 56 55 52
28 27 27 29 31 35 40 44 47 50 52 53 54 54 53 52 51 49 50 51 52 53 54 55 54 54 56 58 58 58 58 57 57 57 58 58 57 57 57 57 56 55 53 52 53 54 51 48 46 44 43 43 42 43 44 45 48 51 51 49 48 47 48 48 48 49 50 50 52 53 52 51 49 48 49 50 51 52 52 54 56 56 56 56 54 53 52 49
25 25 27 29 33 37 42 45 48 50 51 52 52 52 52 50 48 48 50 50 51 53 54 54 54 54 56 57 57 57 57 55 55 56 57 56 56 56 56 56 55 54 52 51 53 53 49 47 45 44 42 42 42 43 45 46 47 48 49 49 49 49 49 48 48 50 50 50 52 52 51 49 47 46 46 48 50 50 51 53 55 56 55 53 50 47 47 46
24 25 27 31 36 40 44 45 47 49 50 51 51 50 48 46 47 49 51 52 54 56 56 55 54 55 55 56 57 57 55 54 55 56 57 57 56 56 56 55 55 53 53 53 54 52 49 48 46 44 43 42 43 44 45 45 46 47 48 48 47 47 46 45 46 48 47 48 49 49 47 45 44 42 41 44 48 48 49 52 53 54 52 48 45 43 41 40
23 26 30 34 39 43 45 46 47 49 50 50 49 47 45 46 49 52 52 54 56 56 56 55 55 55 56 56 57 57 56 56 57 57 57 56 55 55 55 54 53 53 53 53 53 50 48 46 44 43 42 42 44 46 47 48 47 48 48 47 45 43 42 42 44 45 45 45 45 45 44 42 41 38 36 42 47 47 48 50 50 49 48 45 43 40 37 36
25 29 33 37 41 45 46 46 48 50 50 49 47 46 47 50 52 52 52 54 55 55 55 55 55 55 56 56 57 57 57 57 58 58 57 56 55 55 55 54 54 54 53 52 51 49 47 45 43 42 41 42 46 48 48 47 45 46 47 46 44 42 41 42 44 44 44 43 43 43 43 41 40 38 38 43 46 46 45 46 47 47 46 44 40 37 34 33
27 31 36 40 44 47 48 49 50 51 50 48 46 47 50 52 52 52 53 54 53 54 54 53 53 54 55 56 56 57 57 57 56 56 56 56 56 55 55 55 55 55 54 53 52 50 47 46 44 43 42 42 45 46 45 43 42 43 44 44 44 44 44 44 44 44 43 42 41 42 42 40 38 37 39 42 43 43 42 43 44 45 44 43 39 34 31 31
29 34 39 44 48 49 50 51 52 51 50 48 47 49 52 53 52 52 53 53 53 53 53 53 53 54 55 56 56 57 57 57 56 55 56 56 57 56 56 56 56 55 54 53 52 50 48 47 45 44 42 42 43 44 43 42 42 42 44 45 45 44 44 43 43 42 41 40 40 40 40 39 37 37 39 41 40 40 39 40 42 42 42 41 36 31 31 31
32 36 42 47 49 51 51 52 53 51 50 50 50 51 52 52 53 53 54 55 54 53 53 53 54 54 55 57 57 58 57 56 56 56 56 57 58 57 56 56 56 55 54 53 51 49 48 47 44 43 42 42 43 44 42 42 42 42 43 44 43 41 40 40 40 40 39 39 39 39 39 38 37 37 38 39 39 38 38 39 40 41 40 37 32 29 30 31
34 39 44 49 51 52 51 51 52 51 51 52 52 52 52 53 53 54 55 56 54 52 51 51 51 52 54 55 55 55 55 55 56 57 58 58 58 57 55 54 54 54 53 51 50 49 48 46 43 42 42 41 42 42 41 41 42 41 42 41 39 38 38 38 39 39 39 39 39 39 39 38 37 37 38 38 38 38 38 39 39 39 38 34 30 29 31 32
37 42 47 51 53 53 51 51 51 50 51 54 54 54 53 54 54 55 55 55 52 50 50 50 52 55 56 55 54 54 55 55 57 58 58 58 57 55 53 53 53 53 52 50 49 48 47 44 42 42 42 41 41 42 42 42 42 41 41 40 39 39 38 39 40 40 40 39 39 39 38 37 37 37 37 38 39 40 40 40 39 38 35 32 29 29 31 33
40 44 49 54 55 53 52 52 52 52 54 56 56 56 55 55 55 56 55 54 52 51 50 52 55 57 57 56 55 56 56 56 57 57 57 56 55 53 52 53 53 53 51 50 49 47 44 43 42 42 42 42 43 45 46 45 44 44 43 42 41 40 40 40 40 40 40 39 39 38 38 37 37 38 38 40 41 42 42 41 38 36 33 31 30 30 32 34
43 47 51 56 57 55 54 54 54 55 56 56 57 57 56 56 55 55 55 54 53 53 53 54 55 56 55 55 56 57 57 57 57 56 55 54 53 52 53 53 53 53 52 50 48 45 43 43 43 43 43 44 45 46 48 48 47 45 44 41 40 40 40 40 40 40 40 39 39 39 39 38 38 39 40 41 43 43 42 41 38 34 33 32 31 31 33 36
46 49 52 56 59 57 55 56 56 56 56 55 55 55 54 54 53 53 53 53 53 54 54 54 54 54 54 55 56 57 57 58 58 57 56 55 54 54 54 54 53 53 52 50 48 46 45 45 45 45 46 47 47 47 48 50 49 46 43 42 41 40 40 40 41 41 41 41 40 40 39 39 39 40 41 42 43 43 41 40 37 34 33 34 34 34 35 37
50 53 54 57 59 58 56 56 55 55 54 53 52 52 51 50 50 51 52 53 54 54 54 53 53 54 54 55 56 57 57 57 57 56 55 55 55 55 55 55 54 53 52 51 49 48 47 46 46 48 49 49 50 50 50 50 50 47 45 44 42 41 42 42 43 44 43 42 42 42 42 42 42 43 43 43 43 42 41 39 36 34 34 36 37 36 36 38
52 55 56 58 60 60 58 56 55 52 51 51 50 50 49 49 50 53 54 54 55 55 54 53 53 53 54 55 56 57 57 57 56 54 53 53 54 55 56 56 55 53 53 52 51 50 49 48 49 50 51 52 53 54 52 51 51 50 47 46 45 44 45 45 46 46 45 44 44 44 44 45 45 44 44 44 43 43 41 38 35 33 35 37 38 38 38 39
53 57 58 59 61 61 59 56 55 54 53 52 52 51 51 52 54 55 54 53 53 54 54 54 53 54 55 56 57 57 57 56 56 55 54 55 56 57 57 57 55 54 54 54 54 53 52 51 51 52 54 56 56 56 54 53 52 52 50 49 48 48 48 48 48 48 48 47 46 45 46 46 46 46 45 44 44 43 41 37 34 33 37 39 40 39 39 39
55 59 60 61 61 61 59 57 56 56 56 55 55 55 55 55 55 54 53 52 51 53 55 56 56 56 57 58 58 58 57 57 56 55 56 57 58 58 59 58 57 56 56 56 56 55 54 53 53 54 56 58 58 57 57 55 54 53 53 52 51 51 51 51 51 51 51 49 47 46 47 47 47 46 45 45 45 43 40 37 33 33 39 41 41 41 40 38
55 59 61 63 63 62 60 58 58 57 57 57 57 56 55 54 53 53 53 52 52 54 56 57 58 58 58 58 59 59 58 58 57 56 56 57 58 59 60 60 59 58 58 58 58 57 56 55 54 56 58 60 60 59 58 57 56 55 55 55 54 54 54 53 53 53 52 50 48 48 48 48 47 46 46 47 45 42 39 36 31 32 40 43 42 42 41 39
54 57 60 62 63 63 60 58 58 57 57 57 56 55 54 54 54 53 52 52 53 55 56 57 57 57 57 57 58 58 58 58 58 57 57 58 59 60 61 61 61 61 61 61 61 60 59 57 57 57 59 60 61 60 60 59 58 58 58 58 57 57 56 55 55 55 53 51 49 48 48 48 47 47 49 47 44 41 38 34 28 30 39 44 43 42 42 41
53 56 58 60 63 64 62 59 58 57 57 56 56 55 55 54 54 53 53 54 55 56 57 58 57 56 56 58 59 59 59 59 60 60 60 60 61 62 64 64 65 64 64 64 64 63 62 61 61 60 60 61 61 61 60 60 59 60 60 60 59 58 57 56 55 54 52 50 49 48 48 48 48 50 51 47 43 40 36 31 27 28 35 43 45 43 42 42
51 53 55 57 60 63 64 62 60 58 56 55 54 54 54 55 55 54 54 55 56 56 57 57 56 56 57 58 59 60 61 62 63 63 63 64 65 66 68 68 68 68 67 67 67 66 66 64 64 63 62 62 63 63 62 61 60 60 59 59 59 57 56 55 54 53 51 49 49 50 50 49 49 50 50 47 42 38 34 30 27 28 32 39 45 45 44 42
48 50 52 54 56 59 60 59 57 55 54 53 53 53 54 54 54 54 54 55 56 57 57 58 58 58 58 59 60 61 63 64 64 63 64 65 67 69 71 71 70 70 69 69 68 68 67 66 65 64 64 64 65 65 65 65 64 62 61 60 59 57 55 54 53 52 51 51 51 51 51 51 50 50 49 46 41 37 33 30 28 28 32 36 42 46 46 44
Wind_Direction
264 263 262 262 261 260 260 259 259 258 257 256 254 253 251 249 247 246 244 243 242 241 240 240 240 240 240 240 240 239 239 239 239 239 240 240 241 242 243 244 245 245 246 247 248 249 250 251 252 252 253 253 254 255 256 256 257 258 259 259 261 263 265 266 266 267 266 266 265 264 264 263 262 262 262 263 264 264 264 263 263 263 263 262 262 262 262 262
264 263 262 261 260 259 258 258 257 257 257 256 255 254 252 250 248 246 245 243 242 241 240 240 239 239 239 239 239 239 238 238 239 239 239 240 241 241 242 243 244 244 245 246 247 248 249 250 251 252 253 253 254 255 256 257 258 258 259 260 262 264 265 266 266 266 266 265 265 264 263 263 263 262 262 263 264 265 265 265 264 264 263 262 262 262 262 262
266 265 264 262 260 258 257 256 255 255 255 255 255 254 253 252 250 248 246 244 242 241 240 239 239 238 238 238 238 238 237 238 238 239 239 239 240 241 241 242 243 244 245 246 247 248 249 250 251 252 253 254 255 255 257 257 258 258 259 261 263 264 266 266 267 267 266 266 265 264 263 263 263 263 263 263 263 264 265 266 266 264 264 263 262 262 262 262
268 267 266 264 262 259 257 255 254 254 253 253 253 253 253 253 251 249 247 245 243 241 239 238 238 238 237 237 237 237 237 237 238 239 238 239 240 240 241 242 242 243 244 245 246 247 249 250 251 252 253 254 255 256 257 257 258 259 260 262 264 265 266 267 267 267 267 266 265 264 263 263 263 263 264 264 263 264 265 265 265 264 264 264 263 263 262 262
271 270 268 267 264 261 259 256 254 253 253 252 252 251 252 252 252 251 248 246 244 242 240 238 237 237 236 236 236 236 236 237 238 239 238 239 240 240 241 242 242 243 244 245 246 247 248 250 251 252 253 254 255 256 256 258 259 260 261 263 264 265 266 267 267 268 267 267 265 263 263 263 264 265 265 264 263 263 263 263 263 264 265 264 263 263 263 263
273 272 272 270 267 264 261 258 256 254 253 252 251 250 250 250 251 251 250 247 244 242 240 238 237 236 235 235 235 235 236 236 238 238 238 239 240 240 241 242 242 243 244 245 246 247 248 249 251 252 253 254 255 256 257 258 260 261 262 263 264 265 266 267 267 268 267 267 266 265 263 263 264 265 265 265 263 261 261 261 262 264 264 263 262 263 264 264
275 275 274 273 271 268 265 261 258 256 255 253 252 251 249 249 249 250 250 248 246 243 241 239 237 235 234 234 234 234 235 235 237 237 237 238 240 240 241 241 242 243 244 245 245 247 248 249 250 252 253 254 255 256 258 260 262 263 264 264 264 265 266 267 267 267 267 267 266 265 263 262 263 264 264 264 263 261 260 261 262 263 262 262 262 263 263 263
276 276 275 275 273 271 268 264 261 259 257 255 253 252 250 248 247 248 248 248 247 243 240 239 237 235 233 233 233 233 234 234 235 237 237 237 238 239 240 241 241 242 243 244 245 246 248 249 250 251 252 254 255 257 260 262 263 263 264 264 265 265 266 266 266 266 267 266 264 264 264 263 262 262 262 262 262 262 262 262 262 261 261 262 262 262 262 262
276 276 276 276 275 273 271 267 264 261 259 257 255 254 252 250 247 246 246 247 247 244 241 238 237 235 233 232 232 232 233 233 234 235 236 236 237 238 239 240 241 241 242 244 245 246 247 248 249 251 252 255 257 259 261 262 262 263 263 264 265 266 266 266 266 266 265 264 264 263 263 263 262 261 260 260 262 263 263 262 261 261 260 261 262 262 262 262
276 276 276 276 276 274 272 270 267 264 262 260 258 256 254 251 248 246 244 245 246 245 241 238 236 234 232 231 230 230 231 232 233 234 234 235 236 237 238 239 240 241 242 244 245 246 246 247 249 251 254 256 258 259 260 260 262 263 264 265 266 266 266 266 266 264 263 263 264 264 263 263 262 260 259 260 262 263 262 261 261 260 260 261 261 262 262 263
276 276 276 277 276 275 273 271 268 266 264 262 260 258 256 253 250 247 244 243 244 244 241 238 235 233 232 230 229 229 230 231 232 233 233 233 234 236 237 238 239 241 242 243 244 245 246 248 250 252 254 256 257 258 259 261 263 264 265 266 266 267 267 266 265 264 263 264 264 265 264 262 260 259 259 261 261 261 261 261 260 259 260 261 261 261 262 262
276 276 276 277 276 275 274 271 269 268 266 265 263 261 258 255 252 248 244 242 241 242 241 237 234 232 231 230 228 228 228 229 230 231 232 232 233 235 236 237 238 239 240 241 243 244 246 248 249 251 253 255 256 258 260 262 263 265 267 267 267 267 266 265 264 264 264 263 264 264 263 261 260 260 260 260 260 261 261 260 260 260 260 261 261 261 262 262
275 276 276 276 276 275 273 271 270 269 268 267 265 264 261 258 254 249 244 241 239 240 239 236 233 231 229 229 228 227 227 228 229 230 230 231 232 233 234 235 237 238 239 240 242 243 245 247 249 251 252 254 256 259 261 263 265 267 268 268 267 266 264 264 264 264 263 262 262 262 261 261 261 261 261 261 260 260 259 258 258 259 260 260 261 261 261 261
276 276 276 276 275 274 272 271 270 270 269 268 268 266 264 259 254 248 243 239 237 237 237 234 231 229 228 228 227 226 226 226 227 228 229 229 230 231 232 234 235 236 238 239 241 243 245 247 248 250 252 255 257 260 262 264 265 266 267 267 266 265 264 264 263 262 262 262 261 260 259 260 261 261 261 260 259 259 259 258 258 258 259 260 260 260 260 260
276 276 276 275 274 273 272 271 271 271 270 270 269 268 264 259 252 246 240 236 233 233 233 231 229 227 227 226 225 225 225 225 226 227 228 228 229 230 231 233 234 236 237 239 241 242 244 246 248 250 253 256 258 261 262 264 265 265 265 264 263 264 264 263 262 261 261 261 260 259 257 256 258 260 260 259 259 260 259 259 259 261 261 260 260 261 261 261
276 276 275 275 274 272 272 271 271 271 272 271 270 267 261 255 248 241 235 231 229 228 229 228 226 225 225 224 224 223 223 224 224 225 226 227 228 230 231 233 234 236 237 239 241 242 244 246 248 251 253 256 258 260 262 264 264 264 262 261 262 263 262 261 261 260 259 259 260 259 256 254 256 258 259 259 259 260 260 260 261 263 264 263 262 262 263 263
276 275 275 274 273 272 272 272 272 273 273 272 269 263 256 249 242 235 230 226 224 223 224 224 223 223 223 223 223 222 223 223 223 224 225 226 227 229 231 232 234 235 237 239 241 243 245 247 249 251 253 256 258 261 263 263 262 261 260 261 262 262 261 261 260 259 259 260 261 260 257 254 254 256 259 260 261 261 262 262 264 265 266 266 266 266 266 265
276 275 274 273 273 273 273 273 273 274 273 269 263 256 250 243 236 229 224 221 219 219 221 221 221 221 221 222 222 221 222 222 222 223 225 226 227 228 230 232 233 235 238 239 241 243 245 247 249 251 254 256 258 260 261 261 260 260 262 263 263 263 262 260 260 261 260 258 258 259 258 257 257 258 261 263 263 263 262 262 263 264 266 268 270 270 270 270
275 274 273 273 273 273 273 274 275 274 270 263 256 250 243 236 229 223 219 215 215 216 218 219 219 219 220 221 221 221 221 222 222 222 224 225 226 228 229 231 233 235 237 239 241 242 244 246 249 252 254 255 257 258 259 260 262 263 265 264 263 262 260 259 259 258 255 253 252 256 260 260 260 260 261 261 260 260 260 260 260 263 266 269 272 274 275 276
274 273 273 274 274 274 275 276 274 270 263 256 249 243 236 229 223 217 213 211 212 214 217 217 217 218 219 220 220 220 220 220 221 222 223 224 225 227 229 230 233 235 237 239 240 242 245 247 249 251 252 254 256 258 259 261 264 265 264 262 259 258 259 259 258 254 252 250 250 254 259 261 261 258 255 255 256 257 257 257 259 262 265 270 274 277 278 278
274 274 274 274 275 276 277 275 270 263 256 249 243 236 229 222 216 211 209 209 211 213 215 215 216 217 218 219 218 218 219 219 220 221 222 224 225 227 228 230 232 234 236 238 240 242 245 247 248 249 251 254 257 259 261 263 265 264 261 257 256 256 256 257 257 254 251 250 250 253 256 259 259 256 253 252 253 255 256 257 259 262 267 272 275 276 277 277
274 275 275 276 277 278 276 271 264 256 249 242 235 228 221 215 211 208 208 208 210 211 213 214 214 215 216 217 217 217 217 218 219 220 222 223 225 226 227 229 231 233 236 238 240 243 245 246 247 249 252 255 258 261 262 263 263 261 258 255 253 254 254 254 257 253 248 250 251 252 254 256 257 257 255 254 253 254 256 258 262 266 270 273 275 276 276 275
275 276 278 279 279 276 271 263 256 247 240 233 227 220 214 210 207 206 207 208 208 210 212 213 213 214 214 214 214 215 216 217 218 219 220 221 223 224 226 228 230 233 236 238 240 242 243 244 247 251 254 258 260 262 263 263 261 259 256 253 251 251 252 253 256 252 245 245 247 248 250 254 258 260 259 258 256 256 258 262 265 269 272 274 276 277 275 273
277 279 280 279 276 271 263 255 246 238 232 226 219 213 209 206 204 204 206 207 208 210 211 212 213 214 213 213 213 213 214 215 216 217 218 220 222 223 225 227 230 233 236 238 239 241 243 246 250 253 256 259 261 262 263 261 259 256 254 252 249 248 249 251 253 252 245 243 244 246 248 253 259 261 261 262 262 261 262 264 266 268 271 274 275 274 272 271
280 281 280 276 270 263 254 245 237 231 226 219 212 207 205 203 202 203 205 206 207 209 210 211 212 212 212 211 212 213 213 214 216 216 218 219 221 223 225 227 230 233 235 237 239 241 244 248 252 254 256 259 260 261 260 258 256 254 252 250 248 245 247 250 250 249 246 243 245 249 251 254 258 261 261 262 263 263 264 264 267 270 272 273 273 271 269 269
282 280 276 270 262 254 245 237 230 224 216 209 204 201 200 198 199 202 203 204 206 208 209 210 210 210 209 209 210 212 213 214 215 216 217 219 221 223 225 227 229 232 234 236 239 243 246 249 251 254 257 259 260 260 258 255 252 252 250 247 246 245 247 248 247 247 248 247 248 251 251 252 255 258 259 261 263 265 268 270 271 273 273 273 272 270 269 268
281 276 269 262 253 243 235 228 220 212 206 200 197 196 194 194 197 201 201 202 204 206 207 208 208 207 206 207 209 211 212 213 214 215 217 218 220 222 224 226 228 231 234 237 239 243 246 248 251 254 256 258 259 258 257 254 249 248 247 243 243 244 244 245 246 249 252 251 250 250 250 250 251 253 256 260 265 269 271 273 273 272 272 271 271 270 268 268
277 269 261 252 242 233 225 217 210 204 198 195 194 194 193 192 196 198 199 201 203 203 205 206 206 205 204 206 209 210 211 212 213 215 216 217 219 221 223 225 228 231 233 236 239 242 245 248 250 253 254 256 257 256 255 253 248 247 247 244 242 241 242 245 247 249 250 250 250 250 249 249 251 255 258 262 266 269 272 273 273 273 271 271 271 271 270 269
270 262 252 242 233 224 216 210 204 199 195 193 193 193 192 193 196 197 196 199 201 201 203 204 204 203 202 204 208 210 211 210 211 215 216 216 219 221 223 226 228 230 233 236 239 243 245 248 250 252 254 255 255 254 253 251 246 245 247 248 246 243 245 248 247 246 248 249 250 251 252 254 257 262 265 267 268 270 272 273 274 274 273 274 275 275 274 272
262 253 242 232 224 215 208 204 200 196 194 193 192 191 190 191 195 196 195 198 199 199 201 202 203 201 200 203 208 209 209 209 210 215 217 216 219 222 224 226 229 231 233 236 240 243 245 247 250 251 253 254 254 254 253 251 245 244 246 249 247 245 246 247 247 248 250 251 253 254 256 259 262 266 270 271 271 270 270 271 271 273 275 276 278 279 279 276
254 243 233 223 214 206 201 199 196 194 193 191 190 190 190 191 193 193 194 197 198 198 200 202 202 201 200 203 207 208 208 208 210 215 218 217 218 221 224 227 229 231 233 236 239 242 244 245 247 249 251 252 252 252 252 250 247 245 246 248 248 248 249 251 252 254 255 256 258 259 260 263 266 269 270 270 270 270 270 271 272 274 276 278 280 281 280 276
244 234 223 213 205 200 198 196 195 193 191 190 190 190 191 191 192 192 193 195 196 197 199 200 200 200 201 203 205 208 208 207 208 212 216 216 216 218 221 224 226 227 229 231 235 238 239 240 242 245 248 249 249 250 250 249 248 247 246 247 249 251 252 255 257 258 258 259 260 262 264 266 267 268 269 271 271 270 271 273 275 277 279 281 282 281 279 275
235 223 211 202 197 195 195 194 193 190 189 188 189 190 190 189 190 192 192 193 195 197 197 198 198 199 201 202 204 207 207 206 207 211 215 215 215 217 220 222 225 226 227 230 233 236 237 238 241 245 246 246 246 247 248 246 245 246 245 246 247 250 252 255 257 257 257 258 261 264 266 267 267 268 271 273 273 272 273 275 277 279 281 282 281 281 279 272
224 211 200 194 192 192 192 191 188 187 187 187 188 188 186 188 191 192 192 194 197 197 196 197 197 199 201 201 202 204 206 206 207 210 214 216 216 218 220 222 225 227 228 230 234 236 238 241 244 247 247 246 244 243 243 243 243 245 246 246 248 251 253 254 255 255 256 258 262 264 266 266 266 266 267 269 273 276 277 278 279 282 284 283 281 279 275 266
212 201 193 189 189 189 189 187 185 186 187 187 186 183 184 190 192 191 192 195 197 197 197 197 198 199 201 202 202 203 205 206 207 209 212 215 216 216 218 220 222 224 226 229 232 234 236 240 243 244 244 243 242 243 245 246 247 247 247 248 250 251 250 251 253 255 258 260 261 262 263 263 265 265 264 266 272 277 278 279 281 284 286 284 281 275 266 257
203 193 187 185 186 186 185 184 184 186 186 185 183 182 188 192 190 190 193 195 197 198 198 198 199 200 203 204 203 203 205 207 208 210 212 214 216 216 218 220 222 224 226 228 230 231 234 237 239 240 240 240 242 246 248 248 246 246 247 247 247 247 247 249 253 256 258 259 259 260 262 263 266 268 269 270 273 275 278 281 284 285 286 284 281 270 257 246
195 188 183 183 184 184 184 184 185 186 186 182 182 186 191 191 188 190 192 194 198 199 198 199 200 201 204 205 205 204 205 207 208 210 212 215 216 217 218 220 222 224 226 227 230 231 234 237 239 241 241 239 240 243 244 244 243 243 245 245 245 246 248 250 252 253 255 256 257 260 263 267 269 271 272 273 274 276 280 283 285 286 286 283 277 264 249 237
189 183 182 183 183 183 184 185 185 186 184 182 184 189 192 190 188 190 192 195 198 198 198 201 201 201 204 206 206 206 206 207 208 211 213 215 217 217 218 220 223 225 227 229 231 233 237 240 242 244 243 240 240 242 243 244 243 243 244 245 246 247 248 248 250 251 252 254 258 262 266 269 270 270 271 273 275 280 285 287 288 288 285 279 270 256 243 232
184 180 181 182 183 183 184 185 186 186 185 184 187 190 191 190 189 192 194 195 197 198 199 201 202 203 206 208 208 208 208 208 209 212 214 216 218 218 219 221 225 228 230 231 233 236 239 242 244 244 243 241 242 244 244 244 243 243 244 245 246 246 246 247 248 251 254 257 261 264 267 269 269 269 271 275 280 286 288 290 290 289 283 274 261 248 237 229
181 178 180 181 183 184 184 185 187 188 188 188 189 190 191 190 191 194 195 195 196 198 200 202 203 205 205 206 208 210 210 211 212 214 215 217 220 220 221 223 226 229 231 232 235 237 241 245 246 245 244 242 242 244 244 243 242 242 243 244 244 245 246 248 251 255 258 261 263 264 265 267 269 272 275 280 285 288 290 292 291 289 281 267 253 242 232 225
180 178 179 181 183 184 184 185 187 190 191 192 191 191 191 191 193 195 196 195 196 197 199 203 206 207 205 205 207 209 211 212 214 216 218 219 220 222 223 225 227 229 231 232 234 238 243 247 247 246 245 242 240 240 242 242 242 242 242 243 245 247 249 253 256 259 261 261 262 264 266 269 272 276 279 282 286 288 290 292 292 287 274 258 245 238 231 223
180 178 180 182 183 184 185 186 189 192 194 194 194 193 193 193 194 196 196 197 198 199 200 203 207 209 208 207 208 210 211 212 215 217 219 221 222 223 224 226 228 229 231 233 236 239 241 243 244 244 244 243 242 242 244 245 246 246 247 248 250 251 254 256 258 258 258 259 262 265 268 271 274 276 277 280 283 287 290 292 292 284 267 249 238 235 231 223
180 179 181 183 184 185 186 189 192 194 195 196 196 196 195 195 196 198 198 199 201 202 202 204 207 209 209 210 211 212 212 213 215 216 217 220 222 223 225 227 229 231 232 233 236 237 238 239 240 241 241 243 244 244 245 248 250 250 251 252 253 254 255 255 255 254 255 259 262 266 268 271 272 273 275 278 281 285 289 292 291 282 262 244 235 233 230 223
180 181 182 184 186 187 189 192 194 196 197 198 198 198 198 197 199 200 200 202 204 204 205 207 208 209 211 212 213 214 214 215 217 217 218 220 222 224 224 226 228 230 232 233 235 236 238 239 239 239 240 241 242 243 244 246 250 251 251 252 252 253 253 252 251 252 255 258 261 264 267 270 272 273 275 277 281 285 289 290 288 277 257 241 233 230 228 222
181 182 184 185 187 189 191 193 195 197 199 200 200 200 199 200 202 203 203 204 205 205 206 209 211 212 213 214 215 216 217 217 218 219 220 223 225 227 227 227 227 229 231 233 234 236 238 239 239 239 240 241 241 242 243 245 248 250 250 250 250 250 250 250 250 252 255 257 260 264 268 270 272 273 274 277 281 285 287 288 284 269 252 239 231 228 226 220
182 184 186 187 188 190 191 194 195 197 199 201 201 201 200 202 205 205 205 206 208 208 208 210 212 214 216 216 216 217 218 219 220 220 222 224 226 228 229 230 229 230 232 234 236 237 237 238 238 239 240 241 242 243 244 245 246 248 249 249 248 248 249 249 251 252 255 258 262 265 268 270 271 272 275 277 280 284 286 285 279 261 245 237 230 227 224 220
183 186 188 189 189 191 192 194 196 198 199 200 201 202 203 205 207 208 207 208 210 212 212 213 214 216 218 219 219 219 220 220 221 222 223 225 227 229 230 231 231 232 234 236 237 238 239 239 239 240 241 242 243 244 245 246 246 247 248 249 249 249 250 251 252 254 258 261 264 266 268 269 270 272 275 277 280 284 285 284 276 254 239 235 231 226 224 221
185 188 190 191 191 192 194 195 197 199 201 202 203 205 206 208 210 211 211 211 213 215 216 217 217 218 220 222 222 222 223 223 224 224 226 228 230 232 233 234 234 234 235 236 238 239 240 241 241 241 242 244 245 246 246 247 247 247 248 249 250 251 251 253 255 257 260 262 264 266 266 267 269 271 273 276 281 285 284 283 275 249 234 233 231 227 225 222
186 189 192 193 193 194 195 197 198 200 203 205 206 207 208 210 212 214 214 215 216 219 220 221 222 222 223 225 227 227 227 227 227 228 229 231 233 235 236 237 237 237 237 238 239 240 241 241 241 241 242 244 246 247 247 248 249 249 249 250 251 252 253 254 256 259 261 262 263 263 263 264 267 269 272 277 281 284 283 282 273 248 233 231 231 229 228 225
188 190 193 195 196 197 198 199 200 202 204 206 208 209 211 213 215 217 218 220 221 223 224 226 226 226 227 229 230 230 230 230 230 230 230 232 234 236 237 238 239 239 239 240 241 242 242 242 241 241 242 244 245 246 247 247 248 249 250 250 251 252 253 255 256 258 259 259 259 259 260 263 266 270 274 278 281 281 281 281 273 252 235 232 232 233 232 229
189 192 195 196 198 200 201 202 203 204 205 208 210 212 214 216 218 219 221 224 225 227 228 230 231 231 231 232 234 234 234 234 233 232 232 233 234 236 238 239 239 240 241 242 243 244 243 243 242 241 242 243 245 246 246 246 246 247 248 250 250 251 252 253 254 255 255 255 255 257 259 263 267 271 275 278 279 278 280 282 274 256 240 234 233 234 235 232
190 193 195 198 201 203 205 206 208 209 210 212 214 216 218 220 222 224 226 228 230 232 233 235 235 235 236 237 238 238 238 237 236 235 235 236 236 237 238 239 240 240 241 241 242 242 243 242 242 241 242 243 244 245 246 246 245 245 247 248 249 249 250 251 251 252 253 254 255 258 261 265 268 271 275 276 277 276 279 282 276 258 245 238 235 234 235 235
Height
10629 10629 10629 10629 10630 10630 10630 10631 10631 10632 10633 10634 10635 10637 10639 10641 10643 10646 10649 10653 10659 10665 10670 10675 10680 10684 10689 10694 10699 10702 10706 10709 10713 10715 10715 10719 10724 10727 10730 10734 10737 10739 10741 10744 10746 10749 10752 10754 10757 10760 10761 10763 10764 10766 10768 10770 10772 10771 10767 10765 10767 10771 10775 10780 10784 10787 10790 10792 10794 10795 10794 10791 10788 10780 10782 10788 10785 10786 10793 10796 10798 10799 10800 10800 10798 10797 10799 10803
10622 10622 10622 10622 10622 10622 10623 10623 10624 10624 10625 10626 10627 10628 10630 10631 10634 10637 10640 10644 10649 10655 10661 10666 10671 10676 10681 10687 10691 10694 10699 10703 10706 10705 10707 10716 10719 10721 10725 10727 10730 10733 10736 10738 10741 10744 10746 10749 10752 10754 10755 10757 10759 10761 10762 10764 10765 10763 10760 10761 10765 10768 10771 10775 10778 10781 10784 10786 10788 10788 10787 10785 10781 10775 10778 10784 10780 10781 10787 10790 10793 10794 10794 10793 10792 10792 10795 10798
10615 10615 10615 10615 10615 10615 10615 10615 10616 10616 10617 10617 10618 10619 10621 10622 10624 10627 10631 10634 10639 10645 10651 10657 10662 10667 10673 10679 10683 10687 10691 10696 10698 10696 10704 10712 10711 10714 10719 10720 10724 10727 10730 10733 10736 10738 10741 10744 10746 10748 10750 10752 10753 10755 10757 10758 10757 10755 10755 10759 10762 10763 10766 10769 10771 10775 10777 10780 10782 10781 10780 10780 10775 10769 10773 10779 10777 10779 10783 10785 10787 10787 10787 10787 10786 10787 10790 10793
10607 10607 10607 10606 10606 10607 10607 10607 10607 10608 10608 10609 10609 10610 10611 10613 10615 10618 10621 10626 10631 10636 10641 10646 10652 10658 10664 10671 10675 10679 10684 10689 10689 10690 10701 10704 10702 10708 10711 10713 10718 10721 10724 10727 10730 10732 10735 10738 10740 10742 10744 10746 10747 10749 10751 10750 10749 10749 10751 10756 10758 10759 10761 10764 10766 10768 10770 10773 10775 10775 10774 10774 10769 10764 10767 10772 10773 10777 10780 10780 10780 10780 10781 10780 10780 10781 10784 10789
10598 10598 10598 10598 10598 10598 10598 10598 10598 10599 10599 10600 10601 10601 10602 10604 10606 10609 10612 10617 10622 10627 10631 10636 10641 10648 10655 10661 10666 10671 10677 10681 10681 10685 10694 10695 10696 10702 10704 10707 10711 10715 10719 10721 10723 10727 10730 10732 10735 10737 10738 10740 10741 10743 10744 10743 10744 10743 10747 10753 10754 10754 10756 10758 10760 10761 10763 10765 10766 10767 10768 10768 10764 10760 10761 10764 10769 10775 10775 10774 10773 10775 10775 10773 10773 10775 10779 10784
10589 10589 10589 10589 10588 10588 10588 10589 10589 10589 10589 10590 10591 10592 10593 10595 10597 10600 10603 10608 10613 10617 10621 10625 10631 10638 10646 10652 10657 10663 10669 10673 10673 10678 10686 10688 10690 10695 10698 10701 10705 10709 10713 10714 10718 10721 10724 10727 10729 10730 10731 10733 10735 10736 10737 10739 10739 10738 10743 10749 10748 10749 10752 10753 10755 10755 10757 10757 10757 10758 10761 10762 10759 10756 10755 10756 10763 10769 10769 10768 10770 10772 10769 10764 10766 10771 10775 10779
10579 10579 10579 10579 10579 10579 10578 10578 10579 10579 10579 10580 10581 10582 10583 10585 10588 10591 10594 10599 10602 10606 10610 10615 10621 10628 10636 10643 10647 10655 10661 10663 10665 10671 10678 10681 10683 10688 10692 10695 10699 10703 10705 10708 10713 10715 10719 10721 10723 10724 10725 10727 10728 10730 10733 10734 10734 10734 10739 10741 10742 10745 10747 10747 10749 10749 10750 10750 10749 10749 10752 10756 10755 10752 10749 10748 10754 10762 10764 10765 10767 10768 10762 10755 10759 10767 10771 10773
10569 10569 10569 10569 10568 10568 10568 10568 10568 10568 10569 10570 10571 10572 10573 10576 10578 10581 10585 10589 10592 10596 10600 10605 10611 10618 10626 10633 10639 10646 10650 10653 10658 10663 10670 10674 10676 10681 10684 10688 10693 10696 10699 10703 10707 10710 10713 10715 10716 10717 10718 10719 10723 10727 10729 10730 10727 10728 10732 10734 10737 10739 10740 10741 10742 10743 10744 10741 10740 10741 10745 10749 10749 10747 10743 10741 10746 10754 10760 10761 10763 10762 10754 10749 10755 10761 10764 10767
10559 10559 10559 10558 10558 10558 10557 10557 10557 10557 10558 10559 10560 10561 10563 10565 10568 10572 10575 10578 10581 10586 10590 10596 10602 10609 10617 10623 10629 10636 10639 10645 10651 10655 10662 10666 10669 10673 10677 10682 10686 10689 10693 10697 10701 10705 10706 10707 10709 10710 10712 10716 10720 10724 10725 10723 10720 10721 10725 10728 10731 10732 10733 10735 10736 10737 10736 10732 10731 10735 10739 10740 10742 10740 10736 10736 10743 10750 10754 10755 10757 10754 10745 10744 10751 10755 10758 10762
10548 10548 10548 10547 10547 10547 10546 10545 10545 10545 10546 10547 10548 10550 10552 10554 10557 10560 10564 10568 10571 10575 10580 10586 10593 10600 10607 10612 10619 10625 10629 10637 10643 10646 10654 10659 10662 10667 10671 10676 10680 10684 10688 10692 10696 10698 10698 10700 10703 10706 10709 10714 10717 10717 10717 10715 10713 10716 10720 10723 10725 10725 10727 10729 10728 10728 10729 10725 10724 10729 10733 10733 10734 10732 10729 10734 10741 10745 10747 10748 10750 10744 10737 10741 10746 10748 10752 10755
10537 10537 10537 10536 10536 10535 10535 10534 10533 10534 10534 10535 10536 10538 10540 10542 10545 10549 10553 10557 10560 10565 10570 10576 10584 10591 10597 10603 10609 10614 10620 10629 10634 10638 10646 10651 10656 10661 10666 10671 10674 10679 10683 10686 10689 10689 10691 10695 10699 10703 10706 10709 10709 10708 10710 10710 10710 10711 10714 10717 10717 10719 10721 10721 10719 10720 10722 10721 10719 10723 10726 10724 10724 10724 10725 10732 10736 10738 10740 10742 10741 10734 10732 10738 10740 10742 10747 10749
10526 10526 10526 10525 10524 10524 10523 10522 10522 10522 10522 10523 10524 10526 10527 10529 10532 10537 10542 10546 10549 10554 10560 10567 10575 10581 10588 10593 10597 10604 10614 10622 10625 10629 10638 10646 10651 10656 10660 10664 10668 10673 10676 10679 10681 10683 10687 10691 10696 10699 10700 10701 10700 10702 10705 10705 10705 10707 10708 10710 10711 10713 10713 10712 10712 10715 10716 10715 10714 10717 10716 10714 10716 10719 10723 10728 10731 10732 10734 10736 10732 10726 10728 10733 10733 10736 10741 10743
10516 10515 10514 10514 10513 10512 10511 10510 10509 10509 10509 10510 10512 10513 10514 10515 10519 10525 10530 10534 10538 10543 10550 10558 10566 10572 10578 10582 10587 10598 10607 10611 10615 10623 10632 10640 10644 10648 10653 10657 10662 10666 10669 10672 10674 10678 10683 10687 10690 10692 10693 10693 10694 10698 10701 10700 10702 10704 10703 10703 10704 10704 10704 10706 10708 10709 10709 10709 10710 10710 10708 10707 10710 10714 10718 10723 10726 10726 10728 10728 10723 10720 10723 10726 10727 10731 10734 10736
10504 10504 10503 10502 10501 10500 10499 10498 10497 10497 10497 10498 10499 10499 10500 10502 10507 10512 10517 10522 10527 10533 10541 10549 10557 10563 10568 10573 10582 10592 10596 10600 10609 10617 10625 10631 10636 10641 10646 10651 10655 10658 10662 10665 10669 10674 10678 10681 10683 10685 10686 10687 10690 10694 10695 10696 10698 10699 10697 10695 10694 10695 10699 10702 10703 10702 10704 10705 10704 10704 10703 10702 10705 10707 10712 10717 10720 10720 10720 10719 10715 10714 10718 10720 10720 10724 10726 10729
10493 10492 10491 10490 10489 10488 10487 10485 10484 10484 10484 10485 10485 10485 10486 10489 10494 10499 10504 10510 10516 10523 10532 10540 10548 10554 10559 10566 10575 10583 10586 10591 10601 10610 10616 10624 10629 10634 10639 10644 10648 10652 10656 10660 10664 10668 10671 10674 10677 10678 10680 10683 10687 10688 10688 10691 10692 10692 10691 10687 10686 10689 10694 10696 10695 10697 10700 10700 10698 10698 10698 10697 10699 10701 10705 10710 10713 10714 10713 10710 10708 10708 10711 10712 10714 10717 10719 10721
10481 10480 10479 10478 10477 10476 10474 10473 10472 10471 10472 10472 10471 10471 10473 10477 10481 10487 10493 10499 10506 10515 10524 10531 10539 10545 10550 10559 10567 10572 10575 10581 10593 10603 10609 10617 10623 10627 10633 10638 10642 10646 10650 10654 10658 10661 10665 10668 10670 10673 10676 10679 10681 10681 10683 10686 10685 10684 10683 10680 10682 10686 10688 10689 10689 10692 10696 10695 10692 10691 10692 10693 10694 10696 10699 10704 10709 10709 10706 10704 10703 10703 10704 10705 10707 10710 10713 10715
10469 10468 10467 10466 10465 10464 10462 10460 10459 10459 10459 10458 10457 10458 10461 10465 10470 10476 10483 10490 10498 10507 10515 10521 10529 10536 10543 10551 10557 10562 10567 10575 10588 10597 10602 10610 10616 10621 10627 10632 10636 10639 10643 10647 10652 10656 10659 10662 10665 10668 10671 10674 10675 10675 10677 10677 10674 10674 10675 10677 10680 10682 10684 10683 10683 10686 10691 10692 10686 10684 10687 10688 10690 10693 10694 10698 10703 10703 10701 10700 10698 10697 10698 10699 10701 10704 10706 10709
10457 10456 10455 10454 10453 10451 10449 10448 10447 10446 10446 10444 10445 10447 10451 10455 10461 10468 10474 10482 10491 10500 10507 10514 10522 10528 10536 10542 10548 10555 10562 10570 10582 10590 10595 10603 10609 10615 10620 10625 10629 10633 10638 10642 10646 10650 10653 10657 10660 10664 10667 10668 10668 10669 10669 10665 10664 10668 10672 10675 10676 10678 10680 10678 10679 10682 10687 10689 10682 10677 10680 10684 10687 10689 10690 10692 10696 10697 10697 10696 10694 10693 10693 10694 10697 10698 10699 10702
10446 10445 10444 10442 10441 10439 10437 10436 10435 10434 10433 10433 10435 10438 10442 10448 10454 10460 10468 10477 10486 10492 10498 10506 10514 10521 10528 10535 10542 10552 10558 10565 10575 10583 10589 10596 10602 10608 10613 10618 10624 10628 10633 10636 10640 10644 10648 10652 10657 10659 10660 10660 10659 10661 10659 10655 10660 10667 10669 10671 10671 10673 10673 10673 10675 10677 10681 10684 10679 10675 10676 10678 10682 10685 10686 10688 10689 10692 10693 10691 10690 10689 10689 10690 10692 10693 10694 10696
10435 10433 10432 10431 10429 10426 10424 10424 10423 10422 10422 10423 10427 10431 10436 10441 10448 10455 10463 10471 10478 10484 10492 10500 10508 10515 10522 10530 10539 10547 10553 10559 10567 10575 10582 10589 10596 10602 10607 10613 10618 10623 10626 10629 10633 10638 10644 10649 10652 10651 10650 10650 10653 10653 10652 10652 10659 10665 10665 10665 10665 10666 10667 10669 10671 10671 10675 10678 10676 10674 10672 10673 10676 10679 10681 10684 10685 10687 10687 10686 10686 10686 10686 10687 10688 10688 10689 10690
10423 10422 10421 10419 10416 10414 10413 10412 10412 10412 10413 10416 10420 10424 10430 10435 10442 10450 10457 10464 10471 10480 10487 10493 10501 10510 10517 10525 10535 10541 10546 10552 10560 10569 10577 10584 10591 10597 10602 10608 10613 10616 10618 10622 10629 10635 10640 10643 10642 10641 10641 10644 10647 10647 10647 10650 10656 10659 10659 10658 10658 10659 10663 10665 10665 10667 10670 10671 10671 10671 10670 10669 10670 10671 10675 10679 10682 10682 10682 10682 10682 10682 10682 10683 10684 10684 10685 10685
10412 10411 10409 10407 10405 10403 10402 10402 10402 10403 10405 10409 10414 10419 10424 10430 10437 10444 10450 10458 10466 10474 10480 10488 10497 10504 10511 10521 10529 10535 10541 10548 10557 10565 10572 10580 10587 10592 10596 10601 10605 10607 10611 10620 10627 10632 10634 10633 10630 10632 10636 10640 10643 10642 10643 10647 10651 10652 10652 10651 10651 10654 10658 10660 10662 10664 10665 10666 10667 10669 10668 10666 10662 10663 10667 10671 10676 10677 10677 10678 10678 10678 10678 10678 10679 10680 10679 10679
10402 10400 10398 10396 10393 10392 10392 10393 10394 10396 10398 10402 10408 10413 10419 10425 10433 10440 10447 10454 10463 10470 10477 10484 10491 10497 10507 10517 10523 10529 10536 10543 10551 10558 10566 10573 10578 10583 10589 10594 10597 10602 10610 10617 10622 10624 10624 10621 10622 10628 10632 10636 10638 10636 10637 10643 10645 10645 10645 10644 10644 10649 10653 10656 10658 10659 10661 10663 10665 10666 10664 10661 10657 10656 10658 10661 10668 10672 10673 10674 10675 10674 10673 10673 10673 10674 10673 10672
10392 10390 10387 10384 10383 10383 10384 10384 10386 10388 10392 10397 10403 10409 10415 10422 10430 10437 10444 10452 10461 10467 10473 10480 10487 10496 10505 10512 10517 10523 10530 10536 10543 10551 10559 10565 10571 10578 10584 10588 10592 10600 10607 10611 10614 10615 10613 10614 10619 10625 10629 10631 10631 10630 10632 10637 10638 10638 10638 10635 10638 10644 10648 10650 10652 10654 10656 10658 10659 10659 10659 10658 10653 10650 10650 10653 10658 10664 10668 10670 10670 10670 10669 10667 10667 10668 10667 10666
10382 10380 10376 10374 10374 10375 10376 10377 10379 10383 10389 10395 10401 10407 10414 10421 10429 10436 10443 10451 10458 10463 10470 10478 10486 10493 10501 10508 10514 10519 10524 10531 10539 10546 10552 10559 10567 10574 10578 10584 10590 10596 10600 10603 10607 10606 10605 10612 10617 10620 10623 10624 10625 10625 10627 10630 10631 10632 10631 10629 10631 10637 10641 10645 10647 10648 10650 10652 10654 10654 10656 10656 10650 10644 10645 10648 10650 10655 10662 10666 10666 10664 10662 10660 10660 10662 10662 10661
10372 10369 10367 10366 10367 10368 10369 10372 10376 10381 10387 10393 10399 10406 10413 10421 10428 10434 10441 10449 10455 10461 10468 10475 10481 10489 10498 10504 10507 10513 10521 10528 10534 10541 10548 10556 10564 10569 10574 10580 10585 10589 10592 10597 10600 10599 10602 10609 10612 10614 10617 10618 10619 10618 10620 10624 10626 10626 10625 10622 10624 10631 10636 10639 10641 10643 10645 10648 10649 10649 10651 10653 10646 10640 10641 10643 10645 10649 10655 10658 10658 10657 10655 10653 10653 10655 10656 10656
10362 10360 10359 10359 10360 10362 10364 10368 10373 10378 10384 10390 10396 10402 10409 10416 10423 10430 10439 10446 10452 10458 10464 10470 10477 10486 10493 10496 10501 10510 10516 10521 10529 10538 10546 10553 10558 10562 10569 10574 10578 10583 10587 10592 10595 10593 10598 10604 10606 10609 10611 10612 10613 10612 10614 10618 10620 10621 10619 10615 10620 10627 10630 10632 10636 10640 10641 10642 10644 10644 10646 10646 10640 10636 10638 10641 10643 10644 10647 10648 10648 10649 10649 10646 10646 10648 10649 10650
10353 10352 10352 10353 10355 10357 10360 10365 10369 10374 10380 10385 10391 10396 10404 10412 10419 10427 10436 10443 10449 10455 10460 10466 10474 10482 10488 10493 10500 10505 10509 10518 10529 10534 10539 10546 10551 10557 10564 10568 10572 10577 10582 10588 10588 10587 10593 10598 10600 10603 10606 10607 10607 10606 10608 10612 10614 10616 10611 10610 10617 10622 10623 10628 10634 10636 10635 10635 10638 10639 10639 10637 10633 10633 10636 10639 10641 10641 10639 10638 10638 10640 10641 10640 10640 10640 10641 10643
10346 10346 10347 10348 10350 10353 10357 10361 10366 10371 10376 10381 10387 10396 10404 10411 10418 10426 10434 10440 10446 10452 10457 10463 10470 10477 10486 10491 10494 10498 10507 10519 10525 10526 10533 10542 10547 10552 10558 10562 10566 10572 10578 10582 10581 10582 10589 10593 10595 10599 10601 10602 10601 10601 10604 10606 10608 10608 10605 10607 10614 10618 10620 10624 10627 10627 10627 10630 10634 10632 10630 10629 10630 10631 10633 10634 10636 10637 10633 10630 10629 10630 10631 10632 10632 10632 10633 10634
10340 10340 10342 10343 10346 10350 10354 10358 10363 10368 10373 10380 10388 10396 10403 10410 10417 10425 10431 10437 10442 10448 10453 10459 10466 10475 10483 10486 10489 10496 10506 10514 10519 10522 10530 10539 10544 10548 10553 10557 10563 10570 10575 10578 10576 10578 10584 10587 10590 10594 10596 10596 10596 10597 10599 10600 10602 10602 10602 10606 10610 10613 10615 10616 10618 10620 10622 10625 10626 10623 10623 10624 10627 10630 10629 10628 10629 10630 10628 10625 10624 10623 10624 10625 10625 10624 10624 10624
10334 10336 10338 10340 10344 10347 10351 10355 10360 10366 10372 10380 10388 10394 10401 10408 10415 10423 10429 10434 10441 10447 10452 10457 10465 10473 10478 10481 10487 10494 10501 10510 10517 10520 10526 10535 10541 10545 10549 10554 10560 10566 10571 10573 10571 10573 10579 10583 10586 10589 10590 10590 10592 10593 10593 10594 10595 10596 10599 10602 10604 10607 10608 10610 10612 10613 10616 10618 10616 10615 10618 10621 10624 10626 10625 10622 10622 10623 10621 10619 10618 10619 10619 10619 10619 10618 10616 10614
10330 10332 10335 10338 10341 10345 10349 10354 10359 10366 10374 10381 10388 10394 10401 10408 10415 10421 10427 10434 10439 10444 10449 10455 10462 10468 10472 10478 10484 10490 10498 10507 10514 10516 10520 10529 10536 10538 10542 10547 10553 10559 10564 10566 10563 10566 10574 10578 10580 10582 10584 10586 10587 10587 10587 10589 10590 10591 10594 10598 10599 10601 10603 10605 10606 10606 10609 10610 10607 10609 10613 10617 10620 10621 10620 10617 10616 10616 10615 10613 10612 10612 10613 10613 10613 10611 10608 10606
10327 10329 10332 10335 10339 10343 10348 10353 10361 10368 10375 10382 10388 10395 10402 10410 10414 10418 10424 10429 10433 10437 10443 10450 10456 10462 10468 10475 10481 10487 10495 10504 10509 10511 10514 10521 10528 10532 10536 10541 10546 10552 10557 10558 10558 10562 10568 10572 10575 10578 10579 10581 10582 10582 10582 10583 10584 10585 10588 10592 10594 10596 10599 10600 10599 10600 10602 10602 10602 10604 10608 10611 10614 10617 10618 10614 10610 10610 10609 10608 10606 10605 10606 10606 10605 10604 10602 10599
10324 10327 10330 10333 10337 10342 10347 10354 10363 10370 10376 10382 10388 10395 10403 10407 10409 10415 10421 10425 10429 10434 10441 10446 10452 10458 10464 10471 10477 10483 10491 10497 10502 10506 10510 10517 10524 10529 10533 10538 10542 10547 10551 10553 10555 10560 10564 10567 10571 10573 10574 10577 10576 10575 10574 10576 10579 10581 10583 10586 10589 10592 10595 10594 10592 10593 10595 10597 10599 10600 10602 10606 10608 10613 10615 10610 10604 10603 10603 10601 10600 10599 10599 10599 10598 10597 10595 10592
10321 10324 10328 10332 10337 10342 10348 10356 10363 10369 10375 10381 10387 10394 10399 10401 10406 10414 10419 10422 10427 10433 10438 10444 10450 10456 10461 10467 10473 10480 10486 10491 10496 10502 10506 10511 10517 10522 10527 10531 10535 10539 10544 10549 10552 10556 10559 10562 10565 10566 10569 10571 10569 10567 10569 10572 10576 10577 10579 10582 10585 10587 10588 10587 10586 10588 10591 10594 10595 10595 10597 10600 10603 10607 10609 10604 10600 10599 10597 10595 10594 10593 10592 10591 10591 10590 10589 10587
10319 10323 10327 10332 10337 10342 10349 10355 10362 10367 10373 10380 10387 10391 10392 10395 10404 10412 10416 10421 10426 10431 10437 10444 10450 10455 10460 10465 10471 10477 10483 10487 10493 10498 10502 10506 10511 10516 10521 10525 10529 10533 10539 10543 10546 10550 10553 10556 10558 10560 10563 10564 10563 10563 10566 10569 10571 10573 10574 10576 10578 10579 10581 10582 10583 10584 10587 10589 10590 10591 10592 10595 10598 10601 10600 10597 10595 10594 10592 10591 10590 10588 10586 10585 10584 10584 10583 10583
10318 10322 10327 10331 10336 10342 10348 10354 10360 10366 10373 10379 10384 10385 10387 10394 10403 10409 10414 10420 10424 10429 10436 10441 10446 10452 10457 10461 10467 10473 10478 10483 10489 10494 10498 10501 10505 10510 10515 10519 10523 10528 10533 10537 10541 10545 10548 10550 10553 10555 10557 10560 10559 10559 10562 10564 10566 10568 10568 10569 10571 10574 10577 10579 10579 10581 10583 10584 10585 10586 10587 10590 10594 10594 10593 10590 10589 10589 10589 10587 10585 10583 10581 10580 10579 10578 10577 10577
10317 10322 10326 10331 10337 10342 10348 10353 10359 10365 10371 10376 10378 10381 10386 10395 10402 10406 10410 10414 10419 10426 10433 10437 10442 10448 10452 10456 10462 10468 10474 10480 10485 10489 10492 10495 10498 10504 10510 10514 10519 10524 10529 10534 10537 10540 10543 10546 10549 10551 10553 10555 10554 10555 10558 10560 10561 10563 10562 10563 10567 10571 10573 10574 10575 10577 10579 10580 10582 10583 10584 10586 10589 10589 10587 10585 10585 10585 10584 10582 10580 10578 10576 10575 10575 10574 10573 10573
10316 10321 10326 10332 10337 10342 10348 10354 10359 10364 10369 10372 10375 10379 10386 10393 10399 10403 10406 10411 10417 10424 10430 10435 10442 10447 10451 10456 10462 10468 10474 10478 10481 10483 10486 10489 10493 10500 10508 10514 10518 10521 10526 10531 10534 10536 10538 10542 10545 10547 10548 10550 10551 10552 10554 10555 10556 10557 10557 10560 10564 10566 10568 10570 10571 10573 10575 10577 10579 10580 10581 10582 10583 10583 10582 10581 10581 10580 10579 10577 10575 10573 10571 10571 10571 10570 10569 10570
10315 10320 10326 10332 10338 10343 10348 10355 10360 10364 10367 10369 10372 10378 10384 10390 10396 10400 10404 10410 10416 10422 10428 10433 10437 10440 10445 10452 10460 10466 10470 10474 10476 10478 10482 10487 10492 10500 10508 10513 10515 10518 10522 10526 10528 10531 10534 10537 10540 10542 10543 10546 10547 10547 10548 10549 10550 10552 10554 10556 10559 10562 10564 10566 10568 10569 10572 10574 10575 10576 10577 10578 10578 10578 10577 10576 10576 10575 10573 10572 10571 10569 10568 10567 10566 10566 10566 10566
10314 10319 10325 10331 10337 10343 10348 10354 10358 10361 10363 10366 10370 10375 10381 10387 10392 10396 10402 10409 10414 10419 10424 10428 10430 10434 10441 10449 10454 10459 10463 10468 10472 10476 10481 10487 10493 10500 10505 10507 10510 10513 10516 10519 10522 10527 10531 10533 10535 10536 10538 10541 10542 10540 10540 10542 10545 10547 10549 10553 10556 10559 10561 10563 10565 10566 10567 10569 10570 10571 10572 10573 10573 10573 10572 10572 10571 10570 10569 10568 10567 10566 10564 10563 10563 10564 10563 10563
10313 10318 10324 10330 10335 10341 10346 10350 10353 10356 10359 10364 10369 10374 10379 10385 10390 10395 10401 10407 10411 10416 10420 10423 10427 10433 10440 10446 10450 10453 10458 10464 10468 10474 10480 10486 10491 10496 10499 10501 10504 10507 10511 10514 10518 10524 10526 10526 10528 10531 10533 10534 10535 10535 10535 10536 10539 10543 10547 10552 10555 10557 10559 10561 10561 10561 10562 10564 10565 10566 10567 10568 10568 10568 10567 10567 10567 10566 10564 10563 10563 10562 10560 10560 10561 10561 10561 10561
10313 10318 10323 10329 10334 10339 10343 10347 10350 10354 10358 10363 10369 10374 10380 10387 10391 10396 10401 10405 10409 10413 10418 10421 10425 10431 10437 10442 10446 10450 10455 10459 10463 10469 10475 10480 10485 10490 10493 10496 10499 10502 10506 10510 10515 10518 10519 10520 10523 10525 10526 10527 10529 10530 10531 10531 10534 10540 10546 10550 10552 10554 10556 10556 10556 10556 10558 10560 10561 10561 10561 10562 10563 10563 10563 10562 10562 10561 10560 10559 10558 10557 10556 10556 10557 10558 10558 10559
10311 10317 10322 10327 10332 10337 10341 10345 10350 10355 10360 10365 10371 10376 10382 10388 10391 10394 10398 10402 10406 10411 10417 10420 10424 10429 10433 10438 10443 10447 10452 10457 10461 10467 10473 10477 10480 10484 10487 10490 10494 10497 10501 10505 10508 10510 10513 10516 10518 10519 10520 10522 10523 10524 10526 10528 10531 10536 10542 10545 10547 10549 10550 10550 10550 10551 10554 10556 10556 10555 10556 10557 10557 10557 10557 10557 10557 10557 10556 10555 10554 10553 10552 10552 10554 10555 10555 10556
10310 10316 10320 10325 10329 10334 10339 10344 10350 10357 10362 10367 10372 10377 10382 10386 10388 10390 10395 10399 10403 10409 10415 10418 10423 10427 10431 10435 10439 10443 10449 10454 10459 10466 10471 10474 10476 10478 10480 10484 10488 10492 10495 10498 10501 10504 10507 10511 10512 10513 10514 10515 10516 10517 10521 10525 10527 10531 10536 10539 10541 10543 10543 10544 10545 10546 10548 10550 10551 10551 10551 10550 10551 10551 10551 10551 10552 10552 10552 10551 10550 10548 10548 10548 10550 10551 10552 10553
10309 10314 10318 10323 10327 10332 10338 10343 10349 10354 10359 10364 10369 10374 10378 10380 10382 10387 10393 10398 10403 10408 10412 10415 10419 10422 10425 10429 10434 10439 10445 10450 10456 10462 10465 10467 10469 10471 10474 10478 10483 10488 10489 10491 10494 10497 10501 10504 10506 10507 10508 10507 10509 10512 10516 10520 10523 10525 10528 10531 10534 10535 10536 10538 10539 10540 10542 10544 10546 10546 10545 10544 10544 10544 10545 10546 10547 10547 10547 10546 10545 10543 10543 10544 10546 10548 10549 10550
10306 10311 10316 10321 10326 10331 10336 10341 10346 10351 10355 10360 10365 10369 10372 10376 10380 10386 10392 10397 10402 10405 10407 10411 10414 10417 10420 10425 10430 10436 10441 10447 10452 10456 10458 10460 10462 10465 10468 10472 10477 10482 10484 10485 10487 10490 10494 10498 10501 10502 10501 10501 10503 10506 10510 10514 10517 10520 10522 10524 10527 10528 10530 10532 10533 10534 10536 10538 10540 10541 10539 10538 10538 10538 10539 10540 10542 10542 10542 10541 10540 10539 10539 10540 10542 10544 10546 10548
10304 10309 10314 10319 10324 10329 10334 10339 10344 10348 10353 10357 10362 10367 10372 10376 10380 10385 10390 10395 10398 10399 10402 10406 10410 10414 10418 10422 10427 10433 10439 10444 10449 10452 10454 10456 10458 10460 10462 10465 10470 10475 10477 10478 10480 10483 10487 10492 10494 10495 10495 10495 10497 10500 10504 10507 10511 10514 10516 10517 10519 10522 10524 10526 10527 10528 10530 10532 10534 10535 10534 10532 10532 10532 10533 10534 10537 10538 10537 10536 10535 10535 10535 10537 10538 10540 10542 10544
10303 10308 10313 10318 10323 10328 10333 10338 10343 10348 10352 10357 10361 10366 10371 10374 10377 10383 10388 10392 10394 10396 10399 10402 10406 10412 10418 10421 10425 10430 10435 10440 10444 10448 10450 10451 10453 10454 10456 10459 10462 10466 10469 10471 10473 10476 10480 10484 10487 10488 10489 10489 10490 10494 10498 10501 10504 10507 10509 10510 10512 10515 10517 10520 10521 10522 10524 10526 10528 10528 10528 10527 10527 10526 10527 10530 10532 10533 10533 10532 10531 10531 10532 10533 10535 10537 10538 10540
10302 10307 10311 10317 10322 10327 10332 10336 10341 10346 10350 10355 10360 10365 10369 10372 10376 10381 10385 10388 10390 10393 10395 10399 10404 10411 10415 10417 10419 10423 10429 10432 10436 10439 10442 10444 10445 10446 10448 10450 10453 10457 10461 10463 10466 10469 10473 10476 10479 10482 10483 10483 10484 10487 10491 10494 10496 10499 10500 10502 10505 10508 10511 10514 10515 10516 10518 10520 10521 10521 10522 10522 10522 10520 10521 10525 10528 10528 10528 10528 10527 10527 10528 10530 10531 10532 10534 10536
10301 10305 10310 10315 10320 10324 10328 10332 10337 10343 10349 10354 10359 10363 10367 10370 10374 10378 10381 10384 10387 10390 10393 10397 10402 10406 10409 10411 10413 10417 10420 10423 10425 10429 10432 10434 10436 10436 10437 10440 10444 10448 10452 10455 10458 10460 10464 10468 10472 10475 10477 10478 10478 10480 10483 10486 10489 10491 10492 10495 10497 10501 10504 10506 10508 10509 10511 10513 10514 10515 10516 10517 10517 10516 10517 10521 10523 10524 10524 10524 10524 10524 10525 10526 10527 10528 10529 10531
10299 10304 10309 10314 10318 10322 10327 10333 10339 10345 10350 10354 10358 10362 10365 10368 10372 10376 10378 10381 10383 10386 10388 10391 10395 10398 10402 10404 10407 10408 10409 10411 10415 10421 10425 10427 10428 10428 10429 10431 10435 10439 10442 10446 10448 10451 10454 10458 10463 10467 10470 10472 10472 10474 10475 10477 10480 10483 10486 10488 10491 10494 10497 10499 10501 10503 10505 10506 10507 10509 10511 10511 10512 10512 10513 10515 10518 10519 10519 10519 10520 10520 10521 10522 10523 10524 10525 10526